Hauptseite
METAR-TAF:

METAR-TAF

Flughäfen :

Flughafen Dijon-Bourgogne

Dijon, Frankreich

Breite: 47-16N, Länge: 005-05E, Höhe: 222 m

Beobachtung

Neuester Wetterbericht von vor 37 Minuten, um 11:00 UTC
Wind 5 kt aus Süd/Südost, variierte zwischen Ost/Nordost und Süd/Südwest
Temperatur 27°C
Luftfeuchtigkeit 45%
Luftdruck 1021 hPa
Sichtweite 10 km oder mehr
keine Wolken unter 1500 m und keine Kumulonimbus oder Gewitterwolken

METAR: LFSD 191100Z AUTO 15005KT 060V210 CAVOK 27/14 Q1021

Zeit: 13:37 (11:37 UTC)


TAF: fehlend

Wetterbeobachtungen und Prognosen von mehr als 4000 Flughäfen (METAR und TAF Bericht).

Die verfügbaren Stationen werden durch gelbe und rote Markierungen auf der Karte dargestellt.

Führen Sie die Maus auf sie, um den Namen der Station zu sehen.

Darauf klicken, um die Beobachtung von Wetterbeobachtungen und Prognosen zu sehen.

Um die Karte zu ändern : klicken Sie auf den grünen Tasten mit einem schwarzen Kreuz Zum Vergrößern, auf den grünen Button mit einem Gedankenstrich zu verkleinern, oder auf die grünen Pfeile für benachbarte Karten.


METAR-TAF: